When you browse on this site, cookies collect data to enhance your experience and personalize the content and advertising you see.
Visit our Privacy Policy to learn more. By continuing to use the site, you agree to this use of cookies and data.
  • In Portugal
  • List of Countries
  • For 7 days
  • Water Temperature
  • Satellite Maps
  • Weather Map
  • Weather Widgets
  • user-avatar
    Login

    Hourly Weather Rovenskaya Sloboda

    Today, 24 April, Wednesday

    Time Temperature Precipitation Wind Pressure Humidity
    00:00 +11°C° 0 mm 1 mps 759 mmHg 47%
    01:00 +11°C° 0 mm 1 mps 759 mmHg 48%
    02:00 +10°C° 0 mm 0 mps 759 mmHg 49%
    03:00 +10°C° 0 mm 1 mps 760 mmHg 51%
    04:00 +10°C° 0 mm 1 mps 760 mmHg 52%
    05:00 +10°C° 0 mm 1 mps 760 mmHg 54%
    06:00 +12°C° 0 mm 1 mps 760 mmHg 50%
    07:00 +14°C° 0 mm 1 mps 760 mmHg 47%
    08:00 +16°C° 0 mm 1 mps 760 mmHg 43%
    09:00 +18°C° 0 mm 2 mps 760 mmHg 38%
    10:00 +19°C° 0 mm 2 mps 760 mmHg 33%
    11:00 +21°C° 0 mm 3 mps 760 mmHg 28%
    12:00 +21°C° 0 mm 3 mps 759 mmHg 28%
    13:00 +22°C° 0 mm 3 mps 759 mmHg 27%
    14:00 +22°C° 0 mm 3 mps 759 mmHg 27%
    15:00 +22°C° 0 mm 3 mps 759 mmHg 28%
    16:00 +21°C° 0 mm 3 mps 758 mmHg 30%
    17:00 +21°C° 0 mm 3 mps 758 mmHg 32%
    18:00 +19°C° 0 mm 2 mps 758 mmHg 37%
    19:00 +17°C° 0 mm 2 mps 758 mmHg 42%
    20:00 +15°C° 0 mm 2 mps 758 mmHg 48%
    21:00 +14°C° 0 mm 2 mps 758 mmHg 49%
    22:00 +14°C° 0 mm 2 mps 758 mmHg 50%
    23:00 +13°C° 0 mm 1 mps 758 mmHg 52%

    Tomorrow, 25 April, Thursday

    Time Temperature Precipitation Wind Pressure Humidity
    00:00 +12°C° 0 mm 1 mps 758 mmHg 52%
    01:00 +12°C° 0 mm 1 mps 759 mmHg 53%
    02:00 +12°C° 0 mm 1 mps 759 mmHg 54%
    03:00 +11°C° 0 mm 1 mps 759 mmHg 55%
    04:00 +11°C° 0 mm 1 mps 759 mmHg 57%
    05:00 +10°C° 0 mm 1 mps 758 mmHg 58%
    06:00 +12°C° 0 mm 2 mps 759 mmHg 54%
    07:00 +14°C° 0 mm 2 mps 759 mmHg 51%
    08:00 +16°C° 0 mm 2 mps 759 mmHg 47%
    09:00 +18°C° 0 mm 3 mps 759 mmHg 42%
    10:00 +20°C° 0 mm 3 mps 758 mmHg 37%
    11:00 +21°C° 0 mm 4 mps 758 mmHg 31%
    12:00 +22°C° 0 mm 4 mps 758 mmHg 31%
    13:00 +22°C° 0 mm 4 mps 757 mmHg 30%
    14:00 +22°C° 0 mm 4 mps 757 mmHg 30%
    15:00 +22°C° 0 mm 4 mps 757 mmHg 31%
    16:00 +22°C° 0 mm 4 mps 756 mmHg 33%
    17:00 +21°C° 0 mm 4 mps 756 mmHg 35%
    18:00 +19°C° 0 mm 3 mps 756 mmHg 41%
    19:00 +17°C° 0 mm 3 mps 756 mmHg 47%
    20:00 +15°C° 0 mm 2 mps 756 mmHg 53%
    21:00 +15°C° 0 mm 2 mps 756 mmHg 55%
    22:00 +14°C° 0 mm 2 mps 756 mmHg 57%
    23:00 +13°C° 0 mm 2 mps 756 mmHg 60%

    Day after tomorrow, 26 April, Friday

    Time Temperature Precipitation Wind Pressure Humidity
    00:00 +13°C° 0 mm 2 mps 756 mmHg 61%
    01:00 +12°C° 0 mm 2 mps 756 mmHg 63%
    02:00 +12°C° 0 mm 2 mps 756 mmHg 65%
    03:00 +12°C° 0 mm 2 mps 755 mmHg 66%
    04:00 +10°C° 0 mm 2 mps 755 mmHg 67%
    05:00 +10°C° 0 mm 2 mps 755 mmHg 69%
    06:00 +12°C° 0 mm 3 mps 755 mmHg 62%
    07:00 +14°C° 0 mm 3 mps 755 mmHg 55%
    08:00 +17°C° 0 mm 3 mps 755 mmHg 49%
    09:00 +19°C° 0 mm 4 mps 755 mmHg 45%
    10:00 +20°C° 0 mm 5 mps 755 mmHg 41%
    11:00 +21°C° 0 mm 6 mps 754 mmHg 36%
    12:00 +22°C° 0 mm 6 mps 754 mmHg 35%
    13:00 +22°C° 0 mm 6 mps 753 mmHg 34%
    14:00 +23°C° 0 mm 6 mps 753 mmHg 32%
    15:00 +22°C° 0 mm 5 mps 753 mmHg 33%
    16:00 +22°C° 0 mm 5 mps 752 mmHg 33%
    17:00 +21°C° 0 mm 4 mps 752 mmHg 34%
    18:00 +19°C° 0 mm 4 mps 752 mmHg 39%
    19:00 +17°C° 0 mm 3 mps 752 mmHg 43%
    20:00 +14°C° 0 mm 3 mps 752 mmHg 48%
    21:00 +14°C° 0 mm 3 mps 751 mmHg 50%
    22:00 +13°C° 0 mm 3 mps 751 mmHg 52%
    23:00 +13°C° 0 mm 3 mps 751 mmHg 53%

    27 April, Saturday

    Time Temperature Precipitation Wind Pressure Humidity
    00:00 +12°C° 0 mm 3 mps 751 mmHg 55%
    01:00 +12°C° 0 mm 3 mps 751 mmHg 58%
    02:00 +12°C° 0 mm 3 mps 750 mmHg 60%
    03:00 +12°C° 0 mm 3 mps 750 mmHg 63%
    04:00 +11°C° 0 mm 3 mps 750 mmHg 65%
    05:00 +11°C° 0 mm 4 mps 749 mmHg 68%
    06:00 +13°C° 0 mm 4 mps 749 mmHg 65%
    07:00 +14°C° 0 mm 4 mps 749 mmHg 62%
    08:00 +15°C° 0 mm 5 mps 749 mmHg 59%
    09:00 +17°C° 0 mm 5 mps 748 mmHg 54%
    10:00 +20°C° 0 mm 5 mps 748 mmHg 49%
    11:00 +21°C° 0 mm 6 mps 748 mmHg 44%
    12:00 +22°C° 0 mm 6 mps 748 mmHg 44%
    13:00 +23°C° 0 mm 6 mps 747 mmHg 43%
    14:00 +24°C° 0 mm 6 mps 747 mmHg 42%
    15:00 +23°C° 0 mm 5 mps 746 mmHg 45%
    16:00 +23°C° 0 mm 5 mps 746 mmHg 48%
    17:00 +23°C° 0 mm 4 mps 746 mmHg 51%
    18:00 +21°C° 0.4 mm 3 mps 746 mmHg 60%
    19:00 +19°C° 0.4 mm 3 mps 746 mmHg 69%
    20:00 +17°C° 0.4 mm 2 mps 746 mmHg 78%
    21:00 +17°C° 0.1 mm 2 mps 746 mmHg 81%
    22:00 +17°C° 0.1 mm 2 mps 746 mmHg 83%
    23:00 +16°C° 0.1 mm 2 mps 746 mmHg 86%

    28 April, Sunday

    Time Temperature Precipitation Wind Pressure Humidity
    00:00 +16°C° 0.7 mm 2 mps 746 mmHg 89%
    01:00 +15°C° 0.7 mm 2 mps 746 mmHg 92%
    02:00 +15°C° 0.7 mm 2 mps 746 mmHg 96%
    03:00 +15°C° 0.4 mm 2 mps 746 mmHg 95%
    04:00 +15°C° 0.4 mm 2 mps 746 mmHg 95%
    05:00 +15°C° 0.4 mm 2 mps 746 mmHg 95%
    06:00 +16°C° 0 mm 2 mps 746 mmHg 90%
    07:00 +17°C° 0 mm 2 mps 746 mmHg 86%
    08:00 +18°C° 0 mm 2 mps 746 mmHg 81%
    09:00 +20°C° 0.5 mm 1 mps 746 mmHg 77%
    10:00 +21°C° 0.5 mm 1 mps 746 mmHg 72%
    11:00 +22°C° 0.5 mm 1 mps 746 mmHg 67%
    12:00 +23°C° 0.9 mm 2 mps 746 mmHg 64%
    13:00 +24°C° 0.9 mm 2 mps 747 mmHg 60%
    14:00 +24°C° 0.9 mm 2 mps 747 mmHg 56%
    15:00 +24°C° 0.5 mm 2 mps 747 mmHg 59%
    16:00 +23°C° 0.5 mm 2 mps 747 mmHg 62%
    17:00 +23°C° 0.5 mm 2 mps 747 mmHg 65%
    18:00 +20°C° 0.3 mm 2 mps 747 mmHg 71%
    19:00 +19°C° 0.3 mm 3 mps 747 mmHg 78%
    20:00 +17°C° 0.3 mm 3 mps 748 mmHg 84%
    21:00 +17°C° 0 mm 4 mps 748 mmHg 86%
    22:00 +15°C° 0 mm 4 mps 748 mmHg 88%
    23:00 +14°C° 0 mm 4 mps 748 mmHg 89%

    29 April, Monday

    Time Temperature Precipitation Wind Pressure Humidity
    00:00 +14°C° 0 mm 5 mps 749 mmHg 90%
    01:00 +13°C° 0 mm 5 mps 749 mmHg 91%
    02:00 +12°C° 0 mm 5 mps 749 mmHg 92%
    03:00 +12°C° 0 mm 5 mps 749 mmHg 91%
    04:00 +12°C° 0 mm 5 mps 749 mmHg 90%
    05:00 +12°C° 0 mm 5 mps 750 mmHg 89%
    06:00 +12°C° 0 mm 5 mps 750 mmHg 87%
    07:00 +12°C° 0 mm 5 mps 750 mmHg 86%
    08:00 +11°C° 0 mm 6 mps 750 mmHg 84%
    09:00 +11°C° 0 mm 6 mps 751 mmHg 80%
    10:00 +13°C° 0 mm 6 mps 751 mmHg 77%
    11:00 +14°C° 0 mm 5 mps 751 mmHg 74%
    12:00 +14°C° 0 mm 5 mps 751 mmHg 73%
    13:00 +14°C° 0 mm 5 mps 751 mmHg 71%
    14:00 +15°C° 0 mm 5 mps 751 mmHg 70%
    15:00 +14°C° 0 mm 5 mps 751 mmHg 71%
    16:00 +14°C° 0 mm 4 mps 751 mmHg 72%
    17:00 +14°C° 0 mm 4 mps 751 mmHg 74%
    18:00 +13°C° 0 mm 4 mps 751 mmHg 74%
    19:00 +12°C° 0 mm 4 mps 752 mmHg 75%
    20:00 +12°C° 0 mm 4 mps 752 mmHg 76%
    21:00 +12°C° 0 mm 4 mps 752 mmHg 75%
    22:00 +12°C° 0 mm 4 mps 752 mmHg 74%
    23:00 +12°C° 0 mm 5 mps 753 mmHg 74%
    Show more